GFSFLT1_sfc_rhum_087.txt.gz
RH
10 9 9 10 13 23 35 55 60 62 56 63 58 67 67 72 77 83 80 82 77 86 89 93 92 88 90 93 95 94 76 63
11 11 10 13 20 28 37 57 61 60 68 72 64 78 69 78 79 85 87 85 85 89 93 91 95 86 90 89 92 92 91 61
12 12 11 19 26 33 40 54 58 66 63 57 57 61 60 63 68 77 82 91 92 93 95 96 94 91 92 94 90 91 86 65
13 13 12 21 29 36 40 49 53 63 58 51 54 57 62 69 76 70 70 75 77 84 82 93 98 91 94 95 93 85 83 71
13 14 13 18 30 36 39 46 51 58 54 52 57 58 61 59 58 55 62 67 70 75 84 92 95 95 95 95 91 86 81 68
14 14 13 11 25 35 43 49 51 55 54 54 56 55 48 50 57 73 72 77 78 80 94 94 94 97 93 93 92 92 86 69
19 17 16 12 18 36 50 55 52 60 56 56 57 55 51 56 70 81 82 83 84 93 97 98 95 97 95 95 91 89 88 73
37 27 20 17 23 40 54 62 62 61 59 55 55 53 56 56 67 75 90 91 93 96 95 98 99 96 95 95 94 92 91 78
48 43 28 23 25 40 65 73 72 69 60 53 54 53 52 53 65 80 85 85 88 91 94 95 98 97 96 97 96 94 92 80
59 58 30 32 35 73 77 77 73 70 56 52 58 57 59 57 67 75 82 79 81 91 91 92 96 98 96 96 97 97 92 85
69 64 60 39 62 71 82 78 72 67 52 57 60 59 60 58 63 67 75 78 81 82 92 88 93 95 97 95 96 96 93 94
78 76 81 69 67 73 83 80 75 72 57 62 64 66 67 65 71 72 66 68 67 73 84 89 89 90 92 92 89 89 87 88
80 81 83 79 76 80 82 81 73 72 61 67 69 68 70 70 71 66 65 63 66 77 74 88 90 89 89 87 86 82 84 85
78 82 85 88 89 81 83 81 75 74 71 70 76 78 78 73 70 74 76 75 70 72 79 88 91 90 90 84 77 74 80 75
78 83 85 87 89 91 93 90 84 80 75 72 75 77 76 76 74 78 72 69 78 76 74 79 88 88 87 85 81 80 74 70
81 85 86 85 88 88 89 91 92 86 86 88 91 90 82 80 86 88 78 81 79 78 82 80 82 81 80 88 89 89 83 84
81 81 83 86 88 89 88 89 89 86 86 86 84 86 87 88 88 88 89 88 89 88 86 86 85 77 96 95 92 88 94 91
88 87 90 89 91 91 93 89 86 84 84 84 84 84 85 85 84 86 89 90 89 90 89 86 89 91 97 96 96 83 87 90
98 94 91 93 94 92 92 88 90 88 87 86 84 85 84 82 83 85 88 89 91 91 90 90 90 90 95 94 91 87 90 90

GFSFLT1_sfc_rhum_090.txt.gz
RH
13 15 14 13 12 25 60 67 69 72 70 72 72 81 83 83 81 82 80 82 82 88 91 94 93 95 97 97 96 96 96 96
14 17 20 18 17 22 62 69 72 71 70 75 75 78 77 88 85 88 86 84 88 92 95 96 95 94 94 95 95 96 99 98
15 17 23 27 25 35 60 67 69 71 68 72 70 73 75 80 84 84 88 89 91 93 94 96 95 94 94 95 92 95 96 97
16 18 23 30 35 47 52 63 66 68 71 69 70 73 76 82 82 82 86 86 91 93 95 96 97 94 96 95 93 89 93 96
15 17 22 26 40 51 47 60 63 70 71 66 72 73 75 75 76 75 80 85 91 92 92 93 96 95 95 95 93 91 88 95
19 18 21 22 35 50 49 57 59 72 69 67 69 70 70 69 72 76 82 85 81 86 89 90 94 96 96 93 98 96 92 91
42 39 25 18 32 45 54 58 58 69 66 68 71 73 68 68 76 86 90 91 91 88 93 96 96 94 95 94 94 96 94 90
50 49 52 55 31 47 55 56 61 65 67 68 70 70 70 74 77 85 90 91 94 93 92 99 98 97 96 94 94 96 94 93
56 56 58 71 46 52 56 59 60 68 68 67 67 66 68 67 74 78 87 86 93 90 96 97 99 98 97 96 97 96 94 92
64 62 68 77 58 57 66 67 66 70 65 66 68 69 68 71 79 83 84 84 82 91 92 96 98 99 98 98 98 96 95 92
70 69 78 77 73 78 83 74 71 74 68 72 69 69 71 75 80 86 86 84 84 86 92 93 98 99 98 98 98 98 94 94
75 75 78 82 80 76 79 82 80 78 72 72 72 70 71 75 79 78 82 88 85 88 89 92 94 98 97 97 98 98 98 98
74 78 80 82 86 90 80 86 86 82 85 75 76 78 76 74 79 79 80 82 83 87 87 89 90 93 96 95 96 96 98 98
74 80 85 84 87 89 91 93 86 85 86 82 85 85 85 82 82 80 78 80 82 84 87 92 91 92 93 95 89 90 93 92
74 82 86 86 86 89 90 93 92 89 88 88 87 86 88 86 86 87 86 84 84 87 88 91 93 92 90 89 87 88 89 90
77 85 88 88 89 88 89 91 92 91 92 92 95 95 92 91 91 91 90 88 86 83 88 82 82 84 86 92 90 89 85 84
83 84 87 91 91 92 90 90 91 89 91 92 89 90 90 91 91 91 90 89 88 88 88 89 90 84 97 96 96 92 92 92
93 90 93 94 96 94 96 93 88 90 90 88 88 86 88 89 87 89 92 92 90 92 92 91 95 94 95 96 94 88 90 92
97 98 96 95 94 93 91 90 92 92 93 89 86 86 87 86 87 89 90 91 92 93 92 91 93 92 94 92 90 88 91 92

GFSFLT1_sfc_rhum_096.txt.gz
RH
15 19 20 19 17 33 76 85 89 90 94 95 97 94 97 96 98 98 97 96 95 96 98 98 97 97 98 98 97 98 94 95
16 17 19 21 22 29 78 87 90 94 94 97 96 95 97 98 98 97 97 96 95 96 98 98 98 96 95 96 97 98 99 98
12 16 17 23 22 24 64 83 90 89 90 84 92 88 95 95 97 96 94 94 94 94 96 98 97 96 96 97 95 98 98 97
13 13 18 19 28 26 62 79 85 85 84 91 97 98 99 99 98 93 90 92 95 95 95 96 97 97 95 95 96 93 95 98
59 59 66 77 68 36 48 76 82 80 84 90 94 90 95 96 94 96 92 94 96 97 97 97 96 96 95 94 94 94 91 98
70 68 67 67 73 77 71 78 81 81 85 87 90 91 94 94 97 96 96 96 96 96 97 98 96 97 95 94 97 97 93 95
76 71 76 81 84 90 89 81 82 84 80 84 85 91 96 97 95 96 97 98 98 97 96 97 97 97 97 97 95 96 96 94
83 83 84 81 84 91 94 90 88 86 84 86 86 87 90 94 94 96 97 94 97 93 92 98 98 98 97 96 96 96 94 94
80 76 78 79 80 86 97 92 88 90 90 90 89 86 84 86 89 94 96 91 91 96 96 97 98 98 97 96 97 97 94 94
78 74 77 79 87 90 96 94 94 91 90 91 92 86 85 89 94 94 97 97 95 96 94 93 94 95 96 98 98 95 97 93
76 75 79 81 87 89 92 95 97 97 96 91 88 89 86 88 93 96 95 96 95 96 94 93 94 97 98 98 98 97 98 97
77 77 77 78 84 88 90 91 97 91 94 96 92 91 89 89 92 95 95 95 91 90 91 92 91 98 98 99 98 99 99 97
82 79 80 80 83 85 88 89 92 96 91 97 96 94 91 91 94 96 96 94 90 89 92 94 96 96 99 99 99 99 98 99
81 84 85 85 86 86 87 88 92 92 96 95 96 94 94 96 96 96 93 93 92 92 93 95 96 98 99 98 98 99 99 97
81 85 87 87 87 88 89 90 90 92 96 95 96 97 97 98 96 94 95 96 97 97 94 94 95 96 96 95 97 98 99 99
85 88 89 89 90 90 89 90 92 91 93 96 98 98 96 94 94 92 92 91 90 90 92 91 90 90 90 97 96 97 98 99
85 87 87 91 92 92 91 92 94 92 94 95 95 94 94 95 94 94 93 93 93 92 94 94 95 90 98 100 98 97 98 96
94 94 92 96 96 94 96 93 92 92 93 94 93 92 93 94 92 93 95 96 94 95 95 94 96 95 96 96 95 92 94 96
96 96 94 96 98 96 93 90 94 95 97 94 91 91 91 92 94 97 96 95 96 96 95 94 95 94 95 95 95 94 96 97

GFSFLT1_sfc_rhum_099.txt.gz
RH
14 14 16 20 20 24 54 85 88 92 94 96 98 97 98 98 98 97 96 96 95 98 99 97 96 97 97 98 97 98 97 96
15 15 16 21 25 29 60 83 92 93 94 96 97 98 97 98 97 96 96 96 96 97 98 98 96 96 93 96 97 98 98 97
17 19 19 21 19 29 50 79 91 93 91 88 92 91 96 95 97 98 96 97 96 97 98 98 97 96 96 96 97 98 97 96
75 72 70 74 52 37 49 75 91 92 89 90 99 99 99 99 99 98 98 96 96 94 96 97 97 95 96 96 96 94 97 98
76 76 80 86 85 83 61 70 89 88 88 89 93 89 94 92 90 91 98 95 95 94 95 96 97 95 95 96 95 94 91 94
83 82 80 81 80 81 91 62 79 82 88 88 91 90 86 94 93 98 96 96 95 95 95 97 97 96 94 95 96 95 96 96
81 75 75 78 71 84 90 91 80 82 86 88 89 88 96 98 97 98 97 97 98 97 97 97 97 96 95 93 95 95 96 98
84 82 79 78 80 80 88 92 90 87 90 91 92 92 94 95 96 95 96 98 99 98 97 99 98 96 95 91 95 96 97 96
79 77 74 77 82 86 86 94 96 94 91 93 94 95 95 94 94 93 93 93 93 96 97 96 94 94 97 98 98 96 97 96
78 77 73 78 84 89 92 95 96 96 92 96 96 95 96 94 95 94 93 93 89 90 90 94 98 99 99 99 99 98 98 96
78 75 76 80 84 89 92 92 96 97 97 95 95 94 94 95 95 96 98 98 97 97 97 97 96 97 97 97 97 97 98 96
77 76 77 79 83 87 90 91 94 97 97 97 97 98 97 96 96 97 97 97 97 96 97 96 94 96 97 98 98 96 98 97
76 78 80 81 83 85 89 89 92 93 94 97 95 98 98 97 96 96 96 95 95 91 94 96 95 96 97 98 99 99 98 98
78 80 85 86 85 87 88 90 92 90 91 98 99 99 97 98 96 95 95 96 97 94 94 95 96 95 97 98 99 99 99 98
81 84 86 88 88 88 89 91 90 89 89 97 99 99 99 99 97 97 96 96 96 97 95 95 96 96 97 97 99 99 99 99
89 89 91 89 93 90 88 91 91 88 90 93 97 98 98 98 97 96 95 95 95 94 94 93 91 90 90 96 98 99 99 97
88 88 90 91 95 93 90 92 92 89 91 93 93 94 96 96 96 96 96 95 94 93 95 94 94 89 98 99 100 98 96 96
90 92 94 94 95 94 94 91 89 92 94 93 92 95 93 94 93 94 96 97 95 96 95 94 97 95 97 97 97 94 96 98
92 94 94 96 94 96 89 87 92 94 99 97 97 94 95 91 92 94 95 95 96 96 96 95 95 94 95 95 95 94 96 97

GFSFLT1_sfc_rhum_102.txt.gz
RH
18 19 19 19 22 24 26 48 89 94 94 94 96 96 95 97 96 97 97 97 97 97 92 95 96 97 97 98 98 97 95 96
29 58 69 44 26 27 29 37 81 95 93 95 94 93 93 97 95 96 97 96 97 96 96 95 95 96 95 96 97 98 98 96
72 71 74 83 89 83 50 48 70 94 88 80 90 89 93 92 94 96 96 96 96 96 97 98 98 98 98 97 97 97 98 97
82 77 80 86 91 90 84 89 73 92 89 89 99 97 99 99 97 96 95 96 96 95 96 97 98 97 97 97 96 96 98 98
82 81 80 82 83 81 84 86 96 88 92 91 86 89 92 89 88 89 94 96 96 95 96 97 97 97 97 96 96 94 92 98
83 81 76 74 77 73 79 84 85 85 94 90 88 93 86 87 90 94 97 98 97 97 97 97 98 97 96 96 96 96 95 94
77 73 73 74 75 82 80 81 83 86 92 92 91 89 89 96 94 95 98 97 98 97 97 97 97 96 96 96 96 96 96 96
80 77 76 73 76 79 84 87 89 90 90 92 90 90 92 93 92 92 97 98 98 98 96 98 97 96 96 95 96 97 96 96
78 75 72 71 77 82 85 89 91 91 93 88 89 90 96 95 92 93 94 95 96 96 96 97 98 98 97 96 96 95 94 95
76 78 76 75 80 85 89 90 89 92 92 86 95 96 96 97 95 95 94 94 97 98 97 98 98 97 97 97 97 96 95 95
77 75 75 78 82 85 88 90 93 93 96 96 95 95 95 97 96 97 96 97 96 96 97 97 98 99 98 98 99 98 98 98
78 74 74 78 82 85 86 90 93 95 94 96 97 97 97 97 97 98 96 97 96 94 95 97 98 98 98 99 98 97 99 98
75 76 78 80 85 85 86 89 91 91 91 95 98 98 98 99 98 98 98 98 98 95 95 95 94 95 96 96 98 98 98 96
79 80 84 85 88 88 87 89 91 90 89 95 98 99 98 99 98 98 98 97 95 93 93 94 94 94 96 97 97 98 99 98
80 83 86 85 88 89 88 90 88 90 88 90 95 97 99 97 98 98 98 95 96 96 93 95 95 96 96 97 98 99 99 98
82 86 87 85 86 88 87 88 88 87 88 90 93 92 93 98 99 99 99 98 98 95 95 94 92 91 89 96 97 99 97 95
82 82 84 86 88 88 87 89 89 88 91 91 90 89 90 94 97 98 97 97 96 95 95 94 94 90 98 100 100 96 94 94
90 91 93 92 94 96 95 90 88 87 90 91 91 91 93 96 93 95 96 97 95 96 96 95 97 96 98 97 96 94 96 96
92 94 92 96 96 95 95 93 87 90 92 93 96 94 97 96 97 96 95 95 96 97 96 95 96 94 96 96 95 94 96 96

GFSFLT1_sfc_rhum_105.txt.gz
RH
42 55 57 57 58 56 36 32 40 72 82 85 88 84 84 84 85 88 89 87 90 91 91 94 92 96 97 96 96 95 90 90
56 60 60 63 65 68 67 67 47 49 69 85 89 90 82 89 86 87 87 88 88 89 93 91 93 92 92 96 96 97 98 94
58 58 60 64 66 68 69 68 68 56 53 64 69 74 81 83 87 86 84 85 89 87 90 92 92 92 93 93 95 97 96 96
61 62 63 62 64 67 65 66 71 72 69 65 74 83 89 94 94 92 87 85 90 88 88 90 93 92 93 94 94 89 97 98
60 62 62 62 62 65 65 68 71 69 72 70 73 74 78 77 76 80 89 85 87 88 88 89 92 90 94 94 89 92 91 97
62 61 60 58 60 63 67 70 72 72 73 75 74 73 68 66 72 80 89 92 87 89 90 89 91 94 94 93 94 94 93 94
63 61 60 59 58 64 69 74 74 75 76 80 82 75 74 73 76 82 88 90 91 93 92 94 93 94 93 89 93 93 94 94
66 63 64 65 67 70 74 77 82 78 83 82 76 84 77 76 77 79 87 94 98 91 96 95 95 94 89 87 94 94 95 96
62 61 62 68 76 78 77 82 85 82 86 90 79 82 88 79 78 76 80 85 89 89 96 92 90 90 88 86 87 90 95 96
66 63 64 70 82 84 86 86 84 86 91 92 83 86 88 89 83 80 84 86 89 94 94 91 88 90 90 89 95 93 90 95
65 66 69 72 82 86 87 87 88 87 90 91 94 91 91 89 90 85 85 89 89 96 94 92 91 90 91 93 93 88 95 95
65 66 70 73 81 85 86 87 89 90 91 92 97 96 94 94 95 93 93 92 94 94 92 94 92 89 86 90 85 98 97 97
65 67 73 74 79 83 85 87 88 88 87 91 97 98 97 97 96 96 95 93 92 91 90 93 90 90 90 93 94 93 92 89
68 69 75 78 79 82 84 86 90 87 86 91 94 96 98 96 97 98 96 96 93 89 91 91 91 93 92 92 87 85 81 79
72 73 78 80 80 82 85 87 86 89 86 89 93 94 94 96 95 96 97 95 95 94 89 90 90 87 89 85 86 84 89 93
76 81 83 80 83 84 83 87 86 86 90 90 92 91 90 91 94 97 98 96 98 92 94 96 95 89 88 92 86 93 95 94
80 79 80 83 85 88 86 90 88 86 88 93 92 89 88 90 92 94 96 97 97 96 96 95 96 90 98 99 100 95 92 92
88 88 90 89 91 95 94 95 88 87 90 89 90 92 95 93 92 95 98 98 96 97 96 95 97 94 97 98 97 91 94 94
91 90 88 92 94 92 90 93 94 90 92 91 91 92 95 97 96 97 96 97 99 97 96 96 95 94 96 96 96 94 95 95

GFSFLT1_sfc_rhum_111.txt.gz
RH
20 27 31 32 33 38 40 41 46 48 42 38 36 38 43 45 46 45 54 48 54 57 56 67 71 77 73 58 71 76 63 56
26 32 35 38 40 41 43 47 48 46 43 36 29 40 40 42 44 51 53 54 56 60 57 71 73 80 75 84 81 87 87 66
30 32 34 39 39 42 43 42 44 45 44 43 42 37 35 36 43 46 50 56 63 63 67 70 73 80 81 87 88 92 88 79
32 34 36 38 39 43 41 41 42 45 49 44 44 44 43 44 41 42 46 55 62 70 75 72 72 78 80 86 86 86 86 90
33 34 36 38 38 43 43 45 45 44 48 49 55 54 51 34 38 37 44 53 62 70 74 80 73 79 82 85 84 81 73 89
37 35 35 33 37 42 47 48 48 48 52 56 57 60 54 50 44 48 48 53 63 74 78 78 78 78 80 81 85 84 77 76
36 34 34 34 37 44 49 52 50 53 58 63 69 72 69 63 60 52 48 48 60 75 80 84 81 79 82 79 80 82 76 72
38 36 36 38 43 47 49 52 58 59 63 65 69 73 76 75 68 61 59 57 68 78 84 88 86 82 80 78 79 87 79 73
36 37 38 39 45 47 52 58 64 64 67 70 72 76 76 74 70 62 58 57 58 72 87 88 85 83 80 80 77 84 86 80
38 38 39 42 45 51 61 66 67 70 74 76 83 82 81 82 80 73 63 61 62 75 85 88 88 87 85 83 80 81 84 89
38 38 42 43 47 50 63 70 73 74 78 84 84 85 85 84 85 84 74 63 63 71 79 88 92 90 89 86 86 82 82 86
39 40 41 43 49 54 61 71 75 82 88 87 88 86 87 90 92 87 77 72 66 74 83 87 88 91 92 90 85 84 86 87
40 41 44 47 53 57 65 73 83 91 92 93 88 86 87 90 94 92 77 69 69 70 80 86 87 89 92 88 79 80 84 85
43 43 48 54 58 63 67 72 85 91 98 90 90 89 90 92 94 97 94 78 68 74 82 86 90 93 92 87 78 82 85 84
49 49 52 58 60 67 71 76 83 86 89 88 92 96 94 93 92 94 96 95 96 97 96 95 93 93 91 89 80 78 84 83
58 60 63 62 68 73 74 84 88 89 85 89 96 96 96 93 92 92 91 94 93 94 97 98 99 98 97 93 84 84 91 94
64 67 78 82 83 79 82 87 95 96 93 92 94 94 98 97 94 93 91 91 93 94 94 95 97 98 100 100 95 92 91 92
79 88 91 91 91 93 93 95 92 95 95 95 90 93 94 97 94 96 98 94 91 94 95 94 97 97 99 98 96 91 94 95
92 93 92 95 96 93 95 95 95 95 97 97 96 97 96 91 94 96 96 96 96 96 96 98 97 99 98 98 94 93 94 94

GFSFLT1_sfc_rhum_114.txt.gz
RH
24 28 35 35 40 46 50 55 61 65 66 67 59 51 60 64 64 60 70 65 65 72 72 80 78 84 85 83 80 84 83 82
30 37 40 42 46 47 49 55 60 59 59 61 59 59 52 62 58 66 68 66 68 68 71 83 82 80 76 81 85 88 92 87
32 35 40 46 46 51 50 48 52 54 52 57 60 61 62 58 58 59 60 67 69 69 72 75 81 82 77 82 90 95 89 91
34 34 40 45 48 54 48 49 51 54 57 53 54 58 60 59 53 48 60 66 72 71 73 73 81 83 81 78 87 88 88 87
33 35 38 42 48 53 50 52 52 50 58 61 67 66 66 62 61 58 57 59 56 72 76 76 81 83 83 82 84 83 81 88
37 36 36 36 45 52 56 54 52 54 60 66 69 72 70 68 68 70 67 64 59 64 73 80 81 84 84 82 81 87 80 80
36 35 36 38 44 53 57 56 55 58 63 67 72 72 70 74 75 75 72 68 65 68 69 81 87 83 87 84 83 87 80 79
37 37 38 42 48 52 54 58 62 63 66 67 69 70 73 75 77 77 76 74 75 75 73 80 84 84 84 85 86 87 85 82
37 38 42 44 48 52 56 60 66 66 67 71 71 72 74 76 77 77 77 75 71 69 77 75 87 83 83 85 88 86 88 89
36 36 42 46 50 56 64 66 67 71 75 76 78 77 76 78 78 78 79 78 73 76 76 81 86 88 86 85 88 89 90 90
38 40 46 48 52 54 64 70 72 75 78 80 79 81 81 81 82 84 83 81 81 81 78 75 86 88 89 89 89 85 92 92
40 42 46 49 53 57 64 70 75 80 83 84 86 85 85 86 88 89 88 88 86 86 79 76 84 89 90 93 86 84 84 90
42 45 49 52 56 60 69 74 82 86 85 85 88 88 86 89 89 89 90 92 91 87 80 75 78 89 91 90 88 86 85 90
48 51 54 58 63 69 72 78 85 86 87 87 90 91 91 93 91 90 89 92 92 94 80 77 79 82 88 91 88 90 92 88
55 58 62 68 71 72 79 88 88 87 86 88 90 91 94 96 95 92 92 90 92 94 92 81 81 91 90 91 90 91 90 88
62 66 68 70 75 81 84 91 96 95 95 93 94 91 90 90 94 94 95 96 95 94 94 94 95 97 94 97 91 93 94 98
67 71 76 80 85 93 93 97 97 97 96 98 99 95 90 92 93 94 94 93 90 93 95 94 95 90 97 100 98 95 96 94
82 86 93 91 95 96 95 98 97 97 98 97 98 98 97 96 91 91 94 96 94 93 93 94 96 95 96 97 98 96 97 97
90 94 94 96 96 96 98 98 97 97 97 97 98 98 98 97 94 95 95 95 96 96 94 93 95 97 96 97 98 93 96 96

GFSFLT1_sfc_rhum_117.txt.gz
RH
45 49 50 56 57 55 55 60 62 62 66 68 68 70 68 74 83 94 90 81 77 86 77 83 91 93 96 94 86 95 89 92
49 50 51 54 55 55 56 60 63 61 63 65 64 70 67 70 80 82 78 88 76 75 90 94 93 82 78 94 96 90 96 93
48 51 54 60 60 60 59 59 61 62 62 63 67 70 78 68 72 76 82 80 79 86 84 86 88 94 93 92 96 98 96 92
46 49 57 61 64 65 61 63 63 66 66 65 67 68 69 72 68 66 66 68 72 82 80 78 88 91 96 92 92 96 93 97
44 46 53 58 65 63 62 63 64 58 66 71 77 81 82 76 75 71 71 68 68 73 78 80 85 85 93 96 94 89 95 94
48 49 52 56 58 65 68 65 63 65 68 70 76 80 77 74 74 76 75 73 71 68 76 81 82 88 89 92 95 94 94 93
44 48 48 56 60 65 70 68 68 68 70 72 76 78 77 77 76 78 79 78 76 76 76 82 85 81 91 93 93 93 87 82
47 52 55 58 64 70 64 71 71 70 73 73 70 72 73 75 75 76 77 80 82 82 82 83 83 83 82 89 94 92 90 88
47 54 58 61 63 70 75 73 73 73 75 76 73 72 75 74 74 74 76 77 76 78 83 83 82 82 82 84 86 91 90 91
51 55 59 62 65 72 78 77 75 77 79 81 82 80 77 79 78 76 78 77 74 78 83 85 84 80 82 83 84 82 92 93
51 59 62 63 65 68 73 79 80 81 83 83 80 82 81 79 80 82 80 79 80 82 81 83 85 83 82 87 85 82 86 91
58 59 61 64 67 70 74 80 85 85 82 84 85 84 84 85 87 86 86 85 85 86 86 87 86 86 81 87 86 79 80 84
60 64 68 70 72 71 78 84 89 86 81 85 86 85 85 87 88 88 88 89 87 89 90 90 89 86 82 88 90 78 81 87
65 69 71 72 73 74 79 85 87 83 85 88 87 88 88 89 89 89 88 88 88 88 88 93 91 88 85 83 84 87 88 84
67 74 74 75 74 82 84 86 86 84 88 91 92 94 92 90 88 88 89 89 90 90 90 91 93 92 89 87 83 80 80 87
73 76 78 80 82 86 86 84 86 92 90 96 98 98 97 92 89 88 88 91 92 91 95 91 91 89 93 98 91 80 86 98
78 77 77 85 90 91 87 89 94 98 96 97 99 99 98 98 93 92 90 91 94 95 96 97 96 90 96 98 100 95 98 97
82 84 90 94 97 96 96 96 96 96 96 97 98 99 98 98 98 95 97 96 93 94 96 94 98 98 98 97 97 95 95 97
96 97 96 97 98 96 96 96 97 96 96 96 96 96 97 95 95 96 97 97 97 96 94 95 93 94 98 96 91 91 93 96

GFSFLT1_sfc_rhum_120.txt.gz
RH
58 62 61 63 62 62 62 63 67 70 71 71 72 77 74 85 87 90 91 93 88 90 94 93 97 95 92 94 90 93 91 89
56 58 62 60 62 62 63 65 69 68 69 72 77 77 74 78 79 81 81 89 91 94 94 91 93 95 95 96 94 97 98 96
56 62 64 66 66 65 64 64 68 69 69 72 82 76 86 75 80 74 79 76 81 82 90 93 90 92 92 96 90 97 96 97
58 62 67 67 69 67 66 66 67 71 70 70 70 72 74 78 73 72 72 73 77 82 86 91 93 93 92 93 93 88 96 100
57 60 65 67 74 69 68 68 69 64 71 74 82 86 86 80 79 73 73 72 73 78 83 85 90 92 95 92 94 93 94 93
67 70 68 66 68 72 68 68 69 71 72 76 81 83 80 77 76 77 75 75 75 75 82 86 89 89 90 94 97 96 93 91
60 59 59 64 64 70 71 69 72 73 76 77 81 84 82 81 80 82 80 78 77 78 81 87 88 86 90 92 93 94 93 91
65 65 62 63 67 77 65 74 75 74 77 77 80 82 82 81 77 78 77 79 80 82 83 85 87 85 86 89 89 94 94 91
75 71 70 63 68 74 77 78 78 76 80 82 82 82 84 81 77 76 78 78 78 76 82 83 84 86 87 88 87 92 94 93
74 69 67 67 71 74 80 85 84 82 84 82 81 81 78 78 77 77 79 77 74 76 80 82 82 80 82 86 91 84 93 92
78 77 76 75 73 78 81 84 88 85 79 79 77 78 76 77 77 79 81 80 80 82 85 85 86 86 81 84 90 86 89 90
69 71 69 72 75 77 81 85 82 82 80 77 78 78 80 83 85 85 85 85 84 85 84 85 86 86 85 89 87 88 84 90
73 73 75 77 77 81 85 80 81 87 84 79 79 80 83 84 86 86 86 87 85 86 85 85 85 86 88 89 90 87 82 91
80 80 81 76 75 82 80 77 80 84 86 88 87 90 92 88 87 87 85 86 85 86 85 88 88 89 92 91 90 90 83 86
76 76 74 75 82 81 79 84 82 87 89 91 91 95 96 96 93 91 89 86 87 88 86 87 89 88 88 90 89 90 82 87
76 76 80 79 83 82 81 88 90 92 92 93 96 98 97 97 97 97 97 91 89 89 89 86 88 86 86 95 95 92 85 90
78 78 85 88 88 91 90 93 95 96 95 97 97 95 96 96 96 97 96 95 96 97 94 90 91 87 95 98 93 95 96 96
86 87 94 94 96 96 96 96 95 93 96 95 95 95 95 97 96 96 96 97 96 96 97 96 94 95 98 96 92 92 94 96
92 95 97 97 96 95 93 88 87 89 93 94 94 95 96 96 96 96 96 97 97 96 96 97 96 95 98 96 88 91 94 98

GFSFLT1_sfc_rhum_123.txt.gz
RH
66 67 67 71 74 69 70 70 73 75 79 78 81 79 80 86 92 89 91 89 88 96 94 94 89 96 98 99 98 98 96 96
67 67 69 68 68 69 72 73 74 73 77 85 89 86 84 82 89 82 88 84 83 86 96 96 93 96 91 96 95 98 99 99
65 68 70 72 71 70 71 72 73 72 76 83 84 87 90 83 80 79 84 80 83 81 88 91 96 97 96 90 96 96 99 99
65 66 71 74 75 74 72 70 69 72 74 74 76 81 79 82 76 76 75 75 80 85 87 90 91 94 95 95 99 98 97 99
72 76 76 74 74 67 68 68 69 66 72 78 86 90 89 85 82 77 75 74 78 84 87 89 92 92 95 95 93 98 94 93
77 79 75 73 72 71 69 71 70 71 74 77 82 87 85 82 80 81 80 79 78 76 86 92 93 92 93 95 94 93 96 89
65 62 64 73 73 72 67 72 71 72 77 79 84 89 89 88 85 85 82 79 79 80 82 88 90 90 92 92 94 94 93 95
72 72 72 68 72 74 67 75 80 77 81 84 84 86 88 87 84 84 84 80 77 80 82 86 84 81 84 90 92 92 92 95
90 89 88 85 79 74 76 79 84 82 79 79 76 74 77 78 77 77 79 81 79 75 80 81 81 81 81 79 85 90 94 92
89 88 88 90 85 86 90 86 82 79 79 76 74 74 73 76 76 76 78 77 76 77 81 84 83 85 86 85 84 86 89 94
81 77 76 76 78 77 80 82 82 80 80 74 72 73 72 76 78 79 80 79 79 82 84 85 85 85 85 87 88 85 89 92
73 72 72 71 73 82 78 77 80 81 84 83 74 78 76 78 79 83 83 83 82 83 83 85 84 84 85 88 90 87 87 88
83 80 78 74 80 76 78 79 85 87 80 85 84 83 83 82 84 84 85 85 83 84 83 83 83 84 86 88 91 88 90 92
86 81 76 79 79 80 80 83 86 83 82 83 86 84 87 89 87 86 85 86 84 83 83 84 84 86 86 86 88 89 90 90
73 76 80 77 82 81 81 84 85 84 82 85 86 88 89 90 87 88 88 87 86 86 85 85 86 86 84 87 88 89 90 90
76 78 81 82 83 84 85 90 91 87 90 91 94 92 90 90 92 93 92 91 90 86 86 88 87 85 85 94 93 94 94 95
79 81 87 90 87 84 87 90 89 92 92 95 94 94 94 95 96 96 93 90 92 94 94 95 92 86 95 93 94 94 92 96
87 91 94 96 92 97 97 94 90 90 91 91 91 93 94 94 94 92 94 95 93 95 95 96 96 96 97 94 93 94 94 95
91 95 96 96 97 98 97 97 89 88 91 91 90 89 89 88 91 94 94 96 96 96 96 96 95 96 98 98 98 97 94 94